• In Kazakhstan
  • List of Countries
  • For 7 days
  • Water Temperature
  • Satellite Maps
  • Weather Map
  • News
  • Weather Widgets
  • user-avatar
    Login

    Hourly Weather Vitebsk

    Today, 22 October, Sunday

    Time Temperature Precipitation Wind Pressure Humidity
    00:00 -2°C° 0 mm 2 mps 750 mmHg 86%
    01:00 -2°C° 0 mm 2 mps 750 mmHg 85%
    02:00 -2°C° 0 mm 2 mps 750 mmHg 85%
    03:00 0°C° 0 mm 1 mps 750 mmHg 84%
    04:00 -1°C° 0 mm 1 mps 750 mmHg 84%
    05:00 -1°C° 0 mm 1 mps 750 mmHg 83%
    06:00 0°C° 0 mm 1 mps 751 mmHg 81%
    07:00 0°C° 0 mm 1 mps 751 mmHg 78%
    08:00 0°C° 0 mm 1 mps 751 mmHg 76%
    09:00 +1°C° 0 mm 0 mps 751 mmHg 68%
    10:00 +2°C° 0 mm 0 mps 751 mmHg 61%
    11:00 +3°C° 0 mm 0 mps 751 mmHg 53%
    12:00 +5°C° 0 mm 1 mps 751 mmHg 51%
    13:00 +5°C° 0 mm 1 mps 750 mmHg 49%
    14:00 +5°C° 0 mm 1 mps 750 mmHg 47%
    15:00 +4°C° 0 mm 1 mps 750 mmHg 53%
    16:00 +3°C° 0 mm 1 mps 750 mmHg 58%
    17:00 +2°C° 0 mm 1 mps 750 mmHg 63%
    18:00 +1°C° 0 mm 1 mps 750 mmHg 65%
    19:00 +1°C° 0 mm 1 mps 750 mmHg 66%
    20:00 +1°C° 0 mm 1 mps 749 mmHg 68%
    21:00 +1°C° 0 mm 1 mps 750 mmHg 68%
    22:00 0°C° 0 mm 1 mps 750 mmHg 69%
    23:00 0°C° 0 mm 1 mps 750 mmHg 70%

    Tomorrow, 23 October, Monday

    Time Temperature Precipitation Wind Pressure Humidity
    00:00 0°C° 0 mm 1 mps 750 mmHg 71%
    01:00 0°C° 0 mm 1 mps 750 mmHg 72%
    02:00 0°C° 0 mm 1 mps 750 mmHg 73%
    03:00 0°C° 0 mm 1 mps 750 mmHg 74%
    04:00 -1°C° 0 mm 0 mps 750 mmHg 74%
    05:00 -1°C° 0 mm 0 mps 750 mmHg 75%
    06:00 -1°C° 0 mm 0 mps 750 mmHg 73%
    07:00 -1°C° 0 mm 0 mps 750 mmHg 71%
    08:00 +1°C° 0 mm 1 mps 750 mmHg 69%
    09:00 +2°C° 0 mm 1 mps 750 mmHg 65%
    10:00 +3°C° 0 mm 1 mps 751 mmHg 60%
    11:00 +4°C° 0 mm 1 mps 751 mmHg 56%
    12:00 +3°C° 0 mm 2 mps 751 mmHg 55%
    13:00 +4°C° 0 mm 2 mps 751 mmHg 54%
    14:00 +4°C° 0 mm 2 mps 751 mmHg 53%
    15:00 +3°C° 0 mm 2 mps 751 mmHg 60%
    16:00 +2°C° 0 mm 2 mps 751 mmHg 66%
    17:00 -1°C° 0 mm 2 mps 752 mmHg 72%
    18:00 -1°C° 0 mm 2 mps 752 mmHg 75%
    19:00 -2°C° 0 mm 2 mps 752 mmHg 77%
    20:00 -2°C° 0 mm 2 mps 753 mmHg 80%
    21:00 -2°C° 0 mm 2 mps 753 mmHg 81%
    22:00 -2°C° 0 mm 2 mps 753 mmHg 82%
    23:00 -2°C° 0 mm 2 mps 754 mmHg 83%

    Day after tomorrow, 24 October, Tuesday

    Time Temperature Precipitation Wind Pressure Humidity
    00:00 -2°C° 0 mm 2 mps 754 mmHg 83%
    01:00 -2°C° 0 mm 2 mps 754 mmHg 82%
    02:00 -2°C° 0 mm 2 mps 755 mmHg 82%
    03:00 -2°C° 0 mm 2 mps 755 mmHg 82%
    04:00 -2°C° 0 mm 2 mps 755 mmHg 82%
    05:00 -2°C° 0 mm 2 mps 755 mmHg 82%
    06:00 -2°C° 0 mm 3 mps 756 mmHg 80%
    07:00 -2°C° 0 mm 3 mps 756 mmHg 79%
    08:00 -2°C° 0 mm 3 mps 756 mmHg 78%
    09:00 0°C° 0 mm 3 mps 757 mmHg 72%
    10:00 +1°C° 0 mm 3 mps 757 mmHg 67%
    11:00 +2°C° 0 mm 3 mps 757 mmHg 62%
    12:00 +2°C° 0 mm 3 mps 757 mmHg 61%
    13:00 +2°C° 0 mm 3 mps 757 mmHg 59%
    14:00 +3°C° 0 mm 3 mps 757 mmHg 58%
    15:00 +2°C° 0 mm 3 mps 757 mmHg 64%
    16:00 +1°C° 0 mm 2 mps 757 mmHg 69%
    17:00 -1°C° 0 mm 2 mps 757 mmHg 75%
    18:00 -1°C° 0 mm 2 mps 758 mmHg 76%
    19:00 -2°C° 0 mm 2 mps 758 mmHg 77%
    20:00 -2°C° 0 mm 2 mps 758 mmHg 79%
    21:00 -2°C° 0 mm 2 mps 758 mmHg 79%
    22:00 -2°C° 0 mm 2 mps 758 mmHg 80%
    23:00 -3°C° 0 mm 2 mps 759 mmHg 81%

    25 October, Wednesday

    Time Temperature Precipitation Wind Pressure Humidity
    00:00 -3°C° 0 mm 2 mps 759 mmHg 82%
    01:00 -3°C° 0 mm 2 mps 759 mmHg 82%
    02:00 -3°C° 0 mm 2 mps 758 mmHg 83%
    03:00 -3°C° 0 mm 2 mps 758 mmHg 83%
    04:00 -3°C° 0 mm 2 mps 758 mmHg 83%
    05:00 -3°C° 0 mm 2 mps 758 mmHg 83%
    06:00 -3°C° 0 mm 2 mps 758 mmHg 81%
    07:00 -3°C° 0 mm 2 mps 758 mmHg 79%
    08:00 -2°C° 0 mm 2 mps 758 mmHg 77%
    09:00 -1°C° 0 mm 2 mps 758 mmHg 71%
    10:00 +1°C° 0 mm 2 mps 758 mmHg 65%
    11:00 +3°C° 0 mm 2 mps 758 mmHg 59%
    12:00 +2°C° 0 mm 3 mps 758 mmHg 58%
    13:00 +2°C° 0 mm 3 mps 758 mmHg 57%
    14:00 +3°C° 0 mm 3 mps 757 mmHg 57%
    15:00 +2°C° 0 mm 2 mps 757 mmHg 63%
    16:00 +1°C° 0 mm 2 mps 756 mmHg 69%
    17:00 -1°C° 0 mm 2 mps 756 mmHg 76%
    18:00 -1°C° 0 mm 3 mps 756 mmHg 76%
    19:00 -1°C° 0 mm 3 mps 755 mmHg 75%
    20:00 -2°C° 0 mm 4 mps 755 mmHg 75%
    21:00 -2°C° 0 mm 4 mps 754 mmHg 75%
    22:00 -2°C° 0 mm 4 mps 754 mmHg 74%
    23:00 -2°C° 0 mm 5 mps 753 mmHg 74%

    26 October, Thursday

    Time Temperature Precipitation Wind Pressure Humidity
    00:00 -1°C° 0.3 mm 5 mps 752 mmHg 75%
    01:00 -1°C° 0.3 mm 5 mps 752 mmHg 76%
    02:00 -1°C° 0.3 mm 5 mps 751 mmHg 78%
    03:00 -1°C° 0.8 mm 5 mps 750 mmHg 81%
    04:00 -2°C° 0.8 mm 6 mps 749 mmHg 85%
    05:00 -2°C° 0.8 mm 6 mps 748 mmHg 88%
    06:00 -2°C° 0.7 mm 6 mps 747 mmHg 89%
    07:00 -2°C° 0.7 mm 6 mps 747 mmHg 90%
    08:00 -1°C° 0.7 mm 5 mps 746 mmHg 91%
    09:00 -1°C° 0.2 mm 5 mps 746 mmHg 91%
    10:00 -1°C° 0.2 mm 5 mps 746 mmHg 92%
    11:00 -1°C° 0.2 mm 4 mps 746 mmHg 93%
    12:00 0°C° 0.1 mm 4 mps 745 mmHg 94%
    13:00 +1°C° 0.1 mm 3 mps 745 mmHg 95%
    14:00 +1°C° 0.1 mm 3 mps 744 mmHg 96%
    15:00 +1°C° 0.1 mm 3 mps 744 mmHg 97%
    16:00 +1°C° 0.1 mm 3 mps 743 mmHg 98%
    17:00 +2°C° 0.1 mm 3 mps 743 mmHg 98%
    18:00 +2°C° 0.4 mm 3 mps 742 mmHg 98%
    19:00 +2°C° 0.4 mm 3 mps 742 mmHg 98%
    20:00 +3°C° 0.4 mm 3 mps 741 mmHg 98%
    21:00 +3°C° 0.4 mm 3 mps 741 mmHg 98%
    22:00 +4°C° 0.4 mm 3 mps 740 mmHg 98%
    23:00 +4°C° 0.4 mm 4 mps 740 mmHg 97%

    27 October, Friday

    Time Temperature Precipitation Wind Pressure Humidity
    00:00 +4°C° 0.3 mm 4 mps 740 mmHg 97%
    01:00 +4°C° 0.3 mm 4 mps 740 mmHg 97%
    02:00 +4°C° 0.3 mm 4 mps 739 mmHg 97%
    03:00 +4°C° 0 mm 3 mps 739 mmHg 97%
    04:00 +4°C° 0 mm 3 mps 739 mmHg 97%
    05:00 +5°C° 0 mm 3 mps 738 mmHg 97%
    06:00 +5°C° 0.5 mm 3 mps 738 mmHg 97%
    07:00 +5°C° 0.5 mm 3 mps 737 mmHg 96%
    08:00 +5°C° 0.5 mm 3 mps 737 mmHg 96%
    09:00 +5°C° 0.9 mm 3 mps 737 mmHg 95%
    10:00 +5°C° 0.9 mm 3 mps 736 mmHg 94%
    11:00 +7°C° 0.9 mm 3 mps 736 mmHg 94%
    12:00 +7°C° 0.2 mm 3 mps 735 mmHg 94%
    13:00 +7°C° 0.2 mm 3 mps 735 mmHg 94%
    14:00 +7°C° 0.2 mm 2 mps 734 mmHg 94%
    15:00 +7°C° 0.5 mm 2 mps 734 mmHg 95%
    16:00 +6°C° 0.5 mm 2 mps 733 mmHg 96%
    17:00 +7°C° 0.5 mm 1 mps 733 mmHg 98%
    18:00 +6°C° 0.3 mm 1 mps 733 mmHg 98%
    19:00 +6°C° 0.3 mm 1 mps 732 mmHg 98%
    20:00 +4°C° 0.3 mm 2 mps 732 mmHg 97%
    21:00 +4°C° 0 mm 2 mps 732 mmHg 97%
    22:00 +4°C° 0 mm 2 mps 731 mmHg 97%
    23:00 +4°C° 0 mm 2 mps 731 mmHg 97%
    Show more